Weather History for Fort Rucker / Ozark, AL

Change the Weather History Date:

Saturday, March 2, 2013

  Actual Average (KOZR) Record (KOZR)
Temperature  
Mean Temperature 39 °F -  
Max Temperature 45 °F 64 °F 82 °F (1997)
Min Temperature 33 °F 43 °F 29 °F (2009)
Degree Days  
Heating Degree Days 26    
Moisture  
Dew Point 26 °F    
Average Humidity 60    
Maximum Humidity 76    
Minimum Humidity 44    
Precipitation  
Precipitation 0.00 in - - ()
Sea Level Pressure  
Sea Level Pressure 30.06 in    
Wind  
Wind Speed 5 mph (WNW)    
Max Wind Speed 12 mph    
Max Gust Speed 21 mph    
Visibility 10 miles    
Events      
Averages and records for this station are not official NWS values.
T = Trace of Precipitation, MM = Missing Value Source: NWS Daily Summary

Daily Weather History Graph

Daily Weather History Graph

Search for Another Location

Airport:

Trip Planner

Search our weather history database for the weather conditions in past years. The results will help you decide how hot, cold, wet, or windy it might be!

Date:

Astronomy

Mar. 02, 2013 Rise Set
Actual Time 6:08 AM CST 5:41 PM CST
Civil Twilight 5:43 AM CST 6:06 PM CST
Nautical Twilight 5:15 AM CST 6:34 PM CST
Astronomical Twilight 4:47 AM CST 7:02 PM CST
Moon 10:56 PM CST (3/2) 8:58 AM CST (3/2)
Length of Visible Light 12h 22m
Length of Day
11h 33m
Waning Gibbous, 74% of the Moon is Illuminated
Mar 2
Waning Gibbous
Mar 4
Last Quarter
Mar 11
New
Mar 19
First Quarter
Mar 27
Full

Hourly Weather History & Observations

Time (CST) Temp. Windchill Dew Point Humidity Pressure Visibility Wind Dir Wind Speed Gust Speed Precip Events Conditions
12:53 AM 37.0 °F 31.6 °F 26.1 °F 65% 30.06 in 10.0 mi WNW 6.9 mph - N/A   Clear
1:53 AM 34.0 °F - 26.1 °F 73% 30.03 in 10.0 mi Calm Calm - N/A   Clear
2:53 AM 33.1 °F - 26.1 °F 75% 30.04 in 10.0 mi Calm Calm - N/A   Clear
3:53 AM 34.0 °F - 26.1 °F 73% 30.03 in 10.0 mi Calm Calm - N/A   Overcast
4:53 AM 35.1 °F - 27.0 °F 72% 30.03 in 10.0 mi Calm Calm - N/A   Overcast
5:53 AM 34.0 °F - 27.0 °F 75% 30.05 in 10.0 mi Calm Calm - N/A   Overcast
6:53 AM 35.1 °F 32.2 °F 28.0 °F 76% 30.07 in 10.0 mi West 3.5 mph - N/A   Overcast
7:53 AM 37.9 °F 33.5 °F 28.9 °F 70% 30.08 in 10.0 mi Variable 5.8 mph - N/A   Overcast
8:53 AM 41.0 °F 35.2 °F 28.9 °F 62% 30.08 in 10.0 mi WNW 9.2 mph - N/A   Overcast
9:53 AM 42.1 °F 36.6 °F 25.0 °F 51% 30.08 in 10.0 mi WNW 9.2 mph - N/A   Overcast
10:53 AM 44.1 °F 38.1 °F 24.1 °F 45% 30.07 in 10.0 mi NW 11.5 mph 18.4 mph N/A   Overcast
11:53 AM 45.0 °F 40.1 °F 24.1 °F 44% 30.06 in 10.0 mi WNW 9.2 mph 20.7 mph N/A   Overcast
12:53 PM 45.0 °F 39.7 °F 25.0 °F 46% 30.03 in 10.0 mi WNW 10.4 mph - N/A   Overcast
1:53 PM 44.1 °F 39.0 °F 25.0 °F 47% 30.03 in 10.0 mi WNW 9.2 mph 17.3 mph N/A   Overcast
2:53 PM 43.0 °F 37.7 °F 25.0 °F 49% 30.04 in 10.0 mi NW 9.2 mph - N/A   Overcast
3:53 PM 43.0 °F 37.7 °F 25.0 °F 49% 30.03 in 10.0 mi NW 9.2 mph - N/A   Overcast
4:53 PM 42.1 °F 36.6 °F 26.1 °F 53% 30.05 in 10.0 mi WNW 9.2 mph - N/A   Overcast
5:53 PM 41.0 °F 37.1 °F 27.0 °F 57% 30.06 in 10.0 mi WNW 5.8 mph - N/A   Overcast
6:53 PM 39.9 °F 35.1 °F 27.0 °F 60% 30.08 in 10.0 mi WNW 6.9 mph - N/A   Overcast
7:53 PM 39.9 °F 34.5 °F 27.0 °F 60% 30.09 in 10.0 mi NW 8.1 mph - N/A   Overcast
8:53 PM 39.9 °F 34.5 °F 27.0 °F 60% 30.09 in 10.0 mi NNW 8.1 mph - N/A   Overcast
9:53 PM 39.0 °F 34.8 °F 27.0 °F 62% 30.10 in 10.0 mi WNW 5.8 mph - N/A   Overcast
10:53 PM 37.9 °F 33.5 °F 27.0 °F 65% 30.09 in 10.0 mi NW 5.8 mph - N/A   Overcast
11:53 PM 37.9 °F 32.1 °F 26.1 °F 62% 30.09 in 10.0 mi NW 8.1 mph - N/A   Overcast